STARLINK-5682, 55457

Orbit data source: Space-Track

STARLINK-5682, 55457 is a payload satellite owned by SpaceX/Seattle (US) in LEO that was launched on Thu, 02 Feb 2023 UTC via an FALCON 9 launch vehicle from the Air Force Eastern Test Range (AFETR). Payload-class satellites include a variety of spacecraft equipped with specific instruments for various scientific and technological missions. These include communications satellites like Starlink; space stations such as the ISS; scientific satellites like the Hubble; Earth observation satellites from companies like Planet Labs, Umbra, and HawkEye 360; GPS; miniature CubeSats for education and research; and military/defense satellites.

Loading next visibility...
Identifier
55457, 2023-015J
Orbit
LEO
Country
Flag of USUS
Related business
Manufacturer
SpaceX/Seattle
Mission
Operational Commercial Communications
Bus & Motor
STARLINK, Unknown motor
Mass
305 kg wet, ~290 kg dry
Launch date (UTC)
2023-02-02 (3 years ago)
Launch vehicle
FALCON 9
Launch site
Air Force Eastern Test Range (AFETR)
Object type
Payload
Rocket body
Debris
Shape & HBR
Box + 1 Pan, 10.1 m
Radar Cross Section
13.562 m², Large (>1 m²)

Expand to show TLE details & history
Last TLE update: 6 hours ago

TLE from 6 hours ago
0 STARLINK-5682
1 55457U 23015J   26132.83445764  .00000704  00000-0  35113-4 0  9990
2 55457  43.0020 326.3362 0001288 288.5475  71.5237 15.27575530180532
Epoch: 2026-05-12T20:01Z
TLE epoch observation values (Epoch: 2026-05-12T20:01:37.140Z)
Latitude
0.00002°
Longitude
155.32833°
Altitude
482.558 km
Speed
7.626 km/s
True Right ascension
21h 45m 20s
True Declination
0° 00' 00"
Sunlit
Object was in daylight at epoch
Visualization orbit readout
Latitude
Unknown
Longitude
Unknown
Altitude
Unknown
Speed
Unknown
Apparent Right ascension
Unknown
Apparent Declination
Unknown
Sunlit
N/A
Visualization observer readout
Local Sidereal Time
10:35:12
Azimuth
Unknown
Elevation
Unknown
Doppler factor
Unknown
Orbital elements
Apogee altitude
485.891 km
Perigee altitude
484.123 km
Semi-major axis
6,863.144 km
Eccentricity
0.00013
Inclination
43.002°
RAAN
326.3362°
Arg. of periapsis
288.5475°
True anomaly
71.5377°
Mean anomaly
71.5237°
Eccentric anomaly
71.5307°
Mean motion
3.81732 °/min
Orbital period
94.31 mins
BSTAR
0.000035113
Loading maneuver chart data...
Computing Atmospheric mass density...
Loading historical data...
Loading historical data...
Loading historical data...
Loading historical data...
Loading historical data...
Loading historical data...
Loading historical data...

Documentation

Showing up to 5 results
|